DECAYED

THORAD AGENA D DEB, 4187 (Decayed)

Orbit data source: Space-Track

THORAD AGENA D DEB, 4187 was space debris in LEO originally from a launch on Tue, 30 Sep 1969 UTC launched from the Air Force Western Test Range (AFWTR). Debris objects in space refer to the collection of defunct objects orbiting the Earth. Examples of debris include non-operational satellites, rocket bodies, and fragments generated from explosions, collisions, or faulty payload assembly.

Not visible in the next 10 days
Identifier
4187, 1969-082BA
Orbit
Decayed
Country
Flag of USUS
Related business
Manufacturer
Unknown
Mission
Decayed spacecraft
Bus & Motor
Unknown
Mass
Unknown
Launch date (UTC)
1969-09-30 (57 years ago)
Launch vehicle
Unknown
Launch site
Air Force Western Test Range (AFWTR)
Object type
Payload
Rocket body
Debris
Shape & HBR
Unknown shape, 0.1 m
Radar Cross Section
Medium (>0.1 m² and <1 m²)

Expand to show TLE details & history
Last TLE update: 4 months ago

TLE from 4 months ago
0 THORAD AGENA D DEB
1  4187U 69082BA  26055.58635036  .10647641  42099-5  60602-2 0  9993
2  4187  69.9346   9.5577 0010034 188.4281 171.6772 16.18753992973317
Epoch: 2026-02-24T14:04Z
TLE epoch observation values (Epoch: 2026-02-24T14:04:20.671Z)
Latitude
-0.00002°
Longitude
4.00781°
Altitude
232.039 km
Speed
7.764 km/s
True Right ascension
00h 38m 13s
True Declination
0° 00' 00"
Sunlit
Object was in daylight at epoch
Visualization orbit readout
Latitude
Unknown
Longitude
Unknown
Altitude
Unknown
Speed
Unknown
Apparent Right ascension
Unknown
Apparent Declination
Unknown
Sunlit
N/A
Visualization observer readout
Local Sidereal Time
23:45:02
Azimuth
Unknown
Elevation
Unknown
Doppler factor
Unknown
Orbital elements
Apogee altitude
227.405 km
Perigee altitude
214.162 km
Semi-major axis
6,598.921 km
Eccentricity
0.001
Inclination
69.9346°
RAAN
9.5577°
Arg. of periapsis
188.4281°
True anomaly
171.69382°
Mean anomaly
171.6772°
Eccentric anomaly
171.68551°
Mean motion
4.04887 °/min
Orbital period
88.91 mins
BSTAR
0.0060602

Documentation

Showing up to 5 results
|